Weather History for KAAT - May, 2014

Change the Weather History Date:

Saturday, May 3, 2014

  Actual Average Record
Temperature  
Mean Temperature 54 °F 48 °F  
Max Temperature 71 °F 63 °F 85 °F (1966)
Min Temperature 36 °F 33 °F 22 °F (1938)
Degree Days  
Heating Degree Days 11 17  
Month to date heating degree days 28 51  
Since 1 July heating degree days 6077 6395  
Cooling Degree Days 0 0  
Month to date cooling degree days 0 0  
Year to date cooling degree days 0 0  
Growing Degree Days 4 (Base 50)    
Moisture  
Dew Point 28 °F    
Average Humidity 40    
Maximum Humidity 64    
Minimum Humidity 15    
Precipitation  
Precipitation 0.00 in 0.05 in 0.38 in (2003)
Month to date precipitation 0.00 0.15  
Year to date precipitation 4.38 6.33  
Sea Level Pressure  
Sea Level Pressure 29.86 in    
Wind  
Wind Speed 9 mph (SW)    
Max Wind Speed 26 mph    
Max Gust Speed 34 mph    
Visibility 10 miles    
Events      
T = Trace of Precipitation, MM = Missing Value Source: NWS Daily Summary

Daily Weather History Graph

Daily Weather History Graph

Search for Another Location

Airport or City:

Trip Planner

Search our weather history database for the weather conditions in past years. The results will help you decide how hot, cold, wet, or windy it might be!

Date:

Astronomy

May. 03, 2014 Rise Set
Actual Time 5:56 AM PDT 8:02 PM PDT
Civil Twilight 5:26 AM PDT 8:32 PM PDT
Nautical Twilight 4:49 AM PDT 9:10 PM PDT
Astronomical Twilight 4:08 AM PDT 9:50 PM PDT
Moon 9:30 AM PDT (5/3) No Moon Set
Length of Visible Light 15h 06m
Length of Day
14h 05m
Waxing Crescent, 20% of the Moon is Illuminated
May 3
Waxing Crescent
May 6
First Quarter
May 14
Full
May 21
Last Quarter
May 28
New

Hourly Weather History & Observations

Time (PDT) Temp. Windchill Dew Point Humidity Pressure Visibility Wind Dir Wind Speed Gust Speed Precip Events Conditions
12:55 AM 42.1 °F - 28.9 °F 60% 29.94 in 10.0 mi Calm Calm - N/A   Clear
1:55 AM 45.0 °F 43.5 °F 28.9 °F 53% 29.91 in 10.0 mi East 3.5 mph - N/A   Clear
3:55 AM 43.0 °F 41.3 °F 27.0 °F 53% 29.90 in 10.0 mi SSE 3.5 mph - N/A   Clear
4:55 AM 44.1 °F 41.5 °F 26.1 °F 49% 29.90 in 10.0 mi SSW 4.6 mph - N/A   Clear
5:55 AM 39.9 °F 37.8 °F 25.0 °F 55% 29.91 in 10.0 mi NW 3.5 mph - N/A   Clear
6:55 AM 37.0 °F - 27.0 °F 67% 29.92 in 10.0 mi Calm Calm - N/A   Clear
7:55 AM 48.0 °F - 28.0 °F 46% 29.91 in 10.0 mi Calm Calm - N/A   Clear
8:55 AM 55.9 °F - 28.0 °F 34% 29.90 in 10.0 mi SW 8.1 mph - N/A   Clear
9:55 AM 60.1 °F - 28.0 °F 30% 29.88 in 10.0 mi WSW 10.4 mph - N/A   Clear
10:55 AM 64.9 °F - 27.0 °F 24% 29.86 in 10.0 mi SW 11.5 mph - N/A   Clear
11:55 AM 68.0 °F - 19.0 °F 15% 29.85 in 10.0 mi SW 23.0 mph 31.1 mph N/A   Clear
1:55 PM 70.0 °F - 30.0 °F 23% 29.83 in 10.0 mi WSW 13.8 mph 26.5 mph N/A   Clear
2:55 PM 70.0 °F - 30.0 °F 23% 29.83 in 10.0 mi West 16.1 mph 23.0 mph N/A   Clear
3:55 PM 71.1 °F - 30.0 °F 22% 29.80 in 10.0 mi SW 16.1 mph 26.5 mph N/A   Clear
4:55 PM 69.1 °F - 30.9 °F 24% 29.79 in 10.0 mi SW 15.0 mph 27.6 mph N/A   Clear
5:15 PM 69.1 °F - 28.0 °F 22% 29.87 in 10.0 mi West 20.7 mph 28.8 mph N/A   Clear
5:55 PM 68.0 °F - 30.9 °F 25% 29.79 in 10.0 mi West 18.4 mph 26.5 mph N/A   Clear
6:55 PM 64.0 °F - 27.0 °F 25% 29.81 in 10.0 mi West 16.1 mph - N/A   Clear
7:55 PM 59.0 °F - 27.0 °F 29% 29.82 in 10.0 mi West 13.8 mph - N/A   Clear
8:55 PM 55.0 °F - 28.9 °F 37% 29.83 in 10.0 mi WSW 6.9 mph - N/A   Clear
9:55 PM 51.1 °F - 30.0 °F 44% 29.85 in 10.0 mi West 3.5 mph - N/A   Scattered Clouds
10:55 PM 54.0 °F - 30.9 °F 41% 29.82 in 10.0 mi SSW 4.6 mph - N/A   Overcast
11:55 PM 52.0 °F - 33.1 °F 49% 29.83 in 10.0 mi SSE 5.8 mph - N/A   Overcast